Wind_Speed
54 52 52 47 48 44 30 27 27 26 22 24 25 22 17 16 16 15 15 13 13 12 13 14 14 13 14 15 15 16 17 15 12 13 13 14 13 15 16 20 23 23 26 26 27 29 30 26 26 23 21 24 28 29
56 55 50 40 39 42 35 30 27 31 28 24 24 25 21 18 18 17 17 18 15 14 14 14 16 13 12 11 13 14 10 9 11 13 13 14 16 16 17 18 21 21 24 26 27 26 30 29 28 27 25 22 21 24
56 50 44 40 38 39 38 38 35 32 31 29 25 26 25 20 18 20 18 19 20 18 16 16 18 20 18 17 16 16 16 15 15 19 18 19 19 18 19 21 22 23 25 27 26 27 27 29 29 29 27 25 26 24
49 49 42 41 40 38 38 41 42 40 37 30 30 27 27 24 21 19 22 22 22 22 22 22 18 20 23 25 25 24 22 20 20 21 22 25 27 26 24 26 25 27 26 27 28 29 29 30 29 30 30 30 29 27
51 52 51 48 44 43 41 42 44 45 43 37 32 29 29 28 28 27 27 26 26 26 25 26 26 25 26 27 27 29 30 30 28 27 28 28 30 33 31 32 32 31 29 28 29 29 31 31 30 30 31 31 31 29
59 58 58 58 50 48 51 46 45 47 50 48 41 37 33 32 32 33 33 32 34 33 33 29 28 31 30 30 31 32 33 34 35 35 35 35 37 39 36 32 36 35 34 31 30 31 30 31 33 32 31 30 28 29
66 64 63 61 58 55 49 48 48 48 52 52 51 47 43 36 35 35 37 36 36 37 39 39 31 31 35 36 34 34 36 37 37 37 35 38 38 40 39 38 37 37 36 35 33 31 31 30 30 32 30 29 28 30
67 68 70 69 66 62 57 54 52 54 55 54 54 52 50 47 43 39 42 42 40 41 43 40 34 29 36 34 38 40 39 39 39 40 38 39 38 37 39 38 37 38 38 38 37 33 32 31 32 32 33 31 31 33
77 75 73 70 70 69 68 65 60 57 57 60 58 59 57 56 49 46 46 47 47 46 46 43 37 38 33 33 33 38 42 43 41 37 38 40 36 35 40 39 38 37 36 38 39 37 35 34 34 32 33 34 33 32
87 88 87 79 77 79 76 74 73 71 68 64 64 65 64 61 58 55 53 52 52 52 51 50 45 41 42 42 40 39 41 41 43 42 39 39 32 35 36 38 36 34 35 37 39 40 38 36 35 35 35 35 35 35
89 89 88 84 80 81 83 83 82 79 79 77 73 70 69 72 70 66 61 60 60 58 58 59 56 47 47 47 46 45 43 43 46 45 42 42 32 38 40 38 34 35 35 36 38 40 42 41 39 36 37 37 37 37
78 77 79 69 68 69 72 73 75 77 77 79 81 79 79 78 78 78 71 69 67 67 65 66 63 60 57 57 56 52 47 46 46 47 46 39 32 40 39 39 37 37 38 38 37 37 39 39 41 38 38 39 38 38
67 66 65 63 62 63 64 65 67 69 71 76 76 79 81 82 80 77 76 79 74 70 68 70 72 70 67 64 63 61 61 59 54 52 49 35 36 43 40 41 41 41 41 41 40 38 38 37 39 40 40 41 41 40
66 65 64 63 62 61 61 61 63 64 65 67 71 78 81 82 75 72 70 75 80 79 78 76 76 74 72 71 69 69 66 67 64 60 52 43 44 46 43 44 41 40 41 41 42 41 39 38 40 41 42 44 44 43
67 66 63 62 61 61 62 63 63 63 63 66 66 71 72 67 72 73 75 77 80 82 77 73 74 71 69 68 61 61 65 68 67 63 47 46 48 51 48 43 40 41 42 42 44 43 42 41 42 43 43 45 46 47
72 69 63 64 64 64 65 66 66 65 67 68 70 68 64 61 60 64 72 77 78 80 81 75 68 63 59 53 52 54 65 68 56 37 46 50 55 54 51 46 43 43 44 43 46 45 43 45 44 43 44 45 46 47
76 72 68 67 67 67 67 68 69 70 70 74 69 64 61 60 54 54 58 59 68 75 78 78 74 66 62 55 52 58 64 50 46 51 49 48 51 52 53 51 48 46 45 43 45 47 44 45 44 45 46 46 45 47
77 75 72 68 69 71 70 70 72 75 75 72 67 56 56 53 54 53 54 58 60 64 65 63 65 68 71 71 64 59 59 59 56 48 51 49 51 50 50 51 49 46 45 45 45 45 46 45 43 44 47 47 45 46
68 69 68 66 67 69 69 70 71 74 72 67 62 61 58 51 50 51 55 58 61 61 62 69 70 68 74 63 59 56 55 54 55 57 58 56 52 51 53 53 51 49 46 46 45 44 47 46 44 43 47 48 44 45
58 59 60 60 61 65 66 69 68 69 69 66 63 62 58 54 52 54 56 58 56 60 66 71 73 68 62 53 49 55 60 56 60 62 62 62 52 53 54 51 49 48 47 48 47 46 45 44 45 45 50 49 46 46
50 50 52 55 59 63 65 64 66 66 64 65 61 59 58 54 54 52 53 53 53 57 60 61 59 58 53 52 57 58 64 63 62 61 61 60 55 55 54 53 52 50 48 48 46 44 46 45 45 48 51 49 47 47
43 46 49 52 57 61 66 64 65 61 62 62 60 58 58 58 57 55 53 53 54 47 43 44 46 46 45 52 50 53 49 44 45 53 54 54 53 57 54 51 54 51 46 41 42 46 48 48 47 48 49 48 46 45
44 45 49 51 54 59 61 58 61 60 61 58 56 57 57 55 54 52 54 51 42 30 32 36 35 39 45 47 48 47 50 46 46 41 41 45 49 51 49 47 47 47 45 46 48 48 47 46 45 46 47 45 43 43
41 44 47 51 53 54 55 55 56 55 55 55 53 55 56 51 51 54 54 43 31 31 33 28 34 38 38 40 44 47 43 56 52 43 35 40 50 55 48 42 39 41 43 44 45 45 45 44 45 45 44 43 42 41
40 41 49 50 48 50 50 51 47 47 45 32 40 47 48 47 49 52 48 40 26 29 35 44 48 43 40 38 38 38 37 45 58 49 33 35 37 45 52 50 43 41 41 43 45 44 42 42 42 42 41 40 40 41
45 51 51 46 43 44 44 43 44 44 44 45 46 41 37 38 41 42 28 25 27 28 33 37 38 38 37 38 39 41 42 44 40 35 44 44 34 34 36 38 45 46 47 42 40 42 41 40 39 38 39 38 39 40
48 51 46 43 41 35 35 36 39 43 46 46 45 41 46 44 41 25 12 17 26 32 30 28 28 29 31 37 38 36 39 38 36 35 36 42 32 32 32 34 37 42 46 44 43 40 38 36 35 35 35 37 39 40
42 28 34 31 35 34 35 36 37 38 41 41 43 43 47 49 36 31 33 33 33 35 33 31 30 29 29 31 33 34 31 34 35 32 34 38 37 36 35 35 36 37 38 40 37 36 36 35 35 35 36 38 38 38
45 33 29 33 36 36 38 38 38 38 38 40 42 44 41 38 35 37 38 35 30 39 40 40 39 30 32 34 32 26 30 34 35 33 32 33 34 38 41 40 36 34 34 35 36 37 36 33 33 35 36 36 38 39
45 46 46 46 44 43 37 27 27 34 40 42 43 45 45 40 38 39 36 33 31 29 31 36 39 39 38 34 31 26 27 31 32 28 28 33 36 33 37 35 32 31 32 33 34 34 31 31 33 34 35 37 38 41
38 41 46 47 47 42 38 36 36 37 40 41 42 45 44 44 43 39 40 38 38 38 34 33 38 40 38 37 32 27 26 25 24 27 28 27 29 32 28 26 27 31 34 34 32 30 30 31 32 34 36 38 40 42
33 39 42 42 39 37 38 39 43 46 44 43 42 42 43 45 48 45 41 43 43 41 38 36 38 40 38 35 30 27 26 27 27 26 26 25 26 19 19 24 30 32 31 29 29 29 31 31 33 36 38 40 40 38
31 35 36 36 35 33 33 36 39 43 45 44 41 43 45 49 53 47 42 43 45 44 45 41 40 41 40 33 30 28 26 28 28 28 25 25 24 23 23 26 28 27 26 25 27 30 32 33 35 37 38 35 30 23
Wind_Direction
281 288 292 294 294 293 291 301 310 311 316 322 319 319 312 310 299 299 300 301 310 324 336 351 355 343 323 315 310 306 310 313 327 336 336 340 348 353 346 342 348 351 355 354 357 353 0 1 12 1 334 302 285 282
278 287 288 286 294 289 287 291 299 307 306 313 310 307 310 306 300 289 291 297 294 296 301 312 321 328 332 322 322 321 325 325 330 332 330 328 333 334 327 331 334 347 345 348 350 352 351 355 358 1 7 357 326 299
274 275 280 286 286 284 282 287 290 294 299 301 305 301 302 302 299 297 289 285 291 288 289 292 297 301 306 309 306 304 303 309 310 317 321 319 320 324 324 323 329 333 333 339 343 344 347 346 349 352 357 359 356 344
262 270 276 280 280 280 277 278 283 286 290 294 295 296 292 292 289 287 297 298 287 283 286 291 289 292 293 297 297 298 297 295 297 297 302 307 310 313 319 317 322 324 321 325 327 333 337 341 344 346 347 349 351 349
263 269 273 274 273 274 277 278 279 280 281 283 286 286 286 286 287 286 284 286 292 290 284 283 287 289 290 291 291 293 291 292 292 292 294 298 301 306 311 312 314 318 318 317 315 319 325 328 333 339 339 339 341 343
264 266 270 270 271 270 269 271 273 275 276 279 279 281 280 283 286 285 283 283 284 285 290 287 280 282 286 285 286 287 288 288 288 288 289 293 296 299 306 308 308 310 309 311 310 311 312 317 324 327 328 334 330 333
263 263 262 267 269 269 270 269 266 267 270 272 276 275 275 274 276 280 281 282 283 285 285 290 286 280 279 278 284 285 286 287 286 287 289 290 291 296 301 304 304 307 306 305 308 306 308 308 309 316 317 318 320 326
260 261 262 262 264 267 267 268 267 265 264 267 270 269 271 271 272 270 274 277 279 281 284 287 293 286 283 285 282 282 284 286 287 288 289 287 290 295 299 298 299 299 300 302 303 302 300 302 304 307 310 313 312 314
267 265 262 263 262 265 267 265 264 263 264 264 263 265 265 268 268 268 269 271 274 277 280 283 290 289 288 284 283 285 285 284 286 288 288 287 293 297 289 290 293 296 296 298 301 301 299 299 302 306 307 310 312 313
266 266 266 263 263 266 265 265 266 264 261 260 261 262 263 266 265 263 265 270 272 274 277 281 284 286 283 285 285 283 283 285 285 283 283 286 293 294 291 291 294 296 298 298 298 298 297 299 300 303 305 308 311 313
268 266 267 267 265 265 266 266 264 263 264 264 262 261 260 260 265 266 264 265 266 269 274 278 276 280 280 282 283 283 284 284 285 287 287 287 294 291 288 293 293 293 293 296 296 295 297 299 301 302 303 306 309 311
262 264 264 261 263 262 262 260 261 261 259 257 257 258 258 256 258 262 265 267 270 271 272 271 274 274 273 274 275 277 278 280 282 286 289 299 303 293 299 296 294 293 294 296 296 296 297 297 298 298 302 304 307 309
259 259 260 260 258 258 258 258 258 257 255 251 250 250 250 250 252 259 263 266 269 267 266 267 269 270 270 269 269 272 274 278 280 281 286 301 299 297 297 295 298 297 295 295 295 295 292 293 295 296 299 302 305 307
256 256 257 257 258 259 259 260 259 259 257 256 253 249 246 246 258 262 260 259 258 258 259 262 264 266 268 271 272 272 273 274 276 281 289 296 289 285 287 289 292 292 292 293 293 292 291 291 293 295 297 301 304 305
255 256 256 257 258 259 259 259 258 258 256 255 254 253 252 255 253 250 249 250 248 251 257 263 264 268 270 272 272 271 270 270 272 282 292 288 285 284 285 286 285 285 287 288 288 290 290 288 289 291 296 300 304 306
255 255 257 257 257 257 258 258 258 258 257 255 255 260 262 258 255 252 250 252 255 259 261 263 263 268 265 252 250 253 265 272 281 281 279 282 283 284 283 282 281 281 282 285 286 285 287 286 286 290 294 298 302 305
253 255 254 254 255 254 254 254 255 255 256 258 260 263 264 262 260 258 255 256 256 258 261 265 266 258 256 259 262 263 268 272 276 277 278 276 275 276 276 278 279 279 280 283 285 285 285 287 287 288 291 295 300 303
252 253 252 251 251 251 251 250 252 253 256 260 262 267 264 262 257 253 251 254 260 262 261 259 261 262 258 257 262 266 267 265 265 265 266 263 264 268 271 272 273 276 278 280 281 282 283 285 287 286 288 292 298 302
249 248 247 247 247 248 248 248 250 253 257 258 262 260 260 260 258 256 254 254 257 260 260 260 257 256 262 265 260 262 264 263 262 261 262 262 259 265 269 272 273 274 275 275 278 281 283 285 284 284 286 291 298 301
244 244 244 244 244 245 246 246 248 251 255 259 258 259 259 257 255 253 253 253 257 260 258 258 259 263 268 267 267 268 260 262 265 265 263 262 263 264 267 270 273 275 275 276 278 281 283 284 284 287 287 291 295 299
244 242 241 240 241 245 246 247 248 249 251 254 256 256 257 257 257 255 255 254 254 258 263 266 267 267 269 261 258 259 266 269 270 266 263 263 262 262 267 270 274 275 274 274 278 280 281 283 283 283 285 289 293 298
243 242 243 242 244 245 244 244 248 250 251 251 251 253 254 255 255 252 252 253 257 266 273 277 276 271 263 260 264 265 260 261 269 265 263 267 269 263 265 270 271 272 275 280 281 281 282 281 281 283 285 287 293 297
240 240 244 245 247 247 245 245 246 247 248 249 251 252 252 251 254 254 253 255 262 277 277 272 277 276 269 263 260 260 255 251 256 263 261 262 264 263 263 267 268 269 276 279 280 282 283 284 285 284 284 288 292 295
238 238 240 243 246 249 247 245 247 249 248 249 251 252 253 253 252 250 252 253 260 255 259 268 273 269 272 272 266 258 257 245 252 259 268 266 266 268 262 261 273 277 279 279 279 281 282 283 282 284 287 289 291 290
229 234 239 243 245 246 247 247 246 245 246 252 256 256 258 258 255 254 257 259 255 284 278 270 265 269 273 278 279 273 264 263 255 250 265 273 270 265 267 266 266 272 278 278 277 278 280 279 280 282 284 287 289 290
232 236 242 245 248 246 246 247 244 244 243 243 246 250 247 256 255 253 264 258 253 247 253 265 272 272 281 279 275 274 273 266 265 272 253 264 273 269 262 257 263 266 271 282 287 281 278 279 281 284 286 287 287 287
235 237 243 244 243 239 242 244 247 246 242 244 245 248 244 246 251 238 226 235 243 250 258 273 280 282 280 276 280 275 276 270 265 255 246 245 270 278 276 266 263 262 266 276 282 280 278 280 282 283 284 284 284 286
225 233 242 242 238 239 239 239 241 242 243 241 238 242 244 243 245 233 242 250 251 256 259 263 272 278 280 289 289 287 269 251 250 254 255 241 248 268 278 276 266 263 265 274 281 280 278 280 281 283 282 283 286 288
228 218 221 233 239 237 240 242 246 243 247 248 246 245 248 248 240 245 249 250 262 259 258 266 275 273 288 298 293 275 257 264 263 259 256 255 246 254 267 271 264 266 273 281 284 282 279 281 283 282 283 286 287 289
226 223 228 231 236 241 240 240 244 246 243 243 244 244 243 243 245 248 249 251 258 266 267 268 269 278 286 293 297 288 270 269 272 270 261 258 253 254 259 261 268 279 282 282 280 281 284 283 282 283 286 287 290 293
238 233 229 232 238 247 248 237 237 238 237 239 243 248 248 248 250 252 252 256 261 263 271 272 270 276 280 285 290 284 278 277 272 270 268 258 258 263 273 274 279 283 282 279 280 282 280 279 282 286 289 291 293 294
229 232 236 243 253 257 255 251 245 239 241 242 246 247 250 253 252 246 252 259 262 268 272 271 263 267 270 274 279 273 269 271 272 271 260 256 263 274 279 277 275 279 281 280 279 278 278 281 286 289 290 292 296 296
233 235 239 247 253 255 258 257 252 251 250 253 255 255 255 257 257 255 256 262 267 269 267 259 248 253 258 264 274 279 277 279 276 268 263 249 257 263 268 274 276 275 276 277 275 275 280 285 287 288 292 296 294 288
Height
5763 5765 5766 5766 5764 5764 5766 5765 5763 5761 5758 5756 5754 5753 5752 5751 5749 5749 5747 5744 5742 5740 5740 5738 5735 5732 5730 5729 5728 5727 5724 5722 5720 5717 5716 5714 5711 5709 5706 5702 5699 5695 5690 5686 5682 5675 5670 5665 5658 5652 5648 5644 5642 5641
5751 5753 5754 5755 5756 5754 5755 5756 5756 5755 5753 5752 5749 5747 5746 5745 5745 5744 5743 5743 5740 5738 5736 5735 5734 5732 5730 5727 5725 5723 5722 5720 5718 5716 5714 5712 5709 5707 5703 5700 5696 5693 5689 5684 5679 5674 5668 5664 5658 5651 5644 5638 5634 5631
5740 5742 5742 5743 5745 5746 5746 5747 5746 5748 5747 5745 5744 5743 5741 5739 5738 5739 5738 5738 5737 5734 5732 5729 5728 5728 5727 5725 5723 5721 5718 5716 5714 5712 5710 5708 5705 5703 5698 5696 5693 5691 5686 5682 5676 5671 5666 5661 5655 5650 5644 5639 5633 5628
5725 5729 5729 5731 5733 5735 5738 5739 5738 5738 5739 5737 5736 5736 5735 5734 5732 5732 5732 5732 5732 5732 5728 5727 5722 5721 5721 5719 5719 5717 5714 5711 5709 5706 5704 5702 5699 5698 5695 5690 5689 5685 5682 5679 5673 5668 5663 5657 5652 5647 5642 5637 5632 5626
5712 5716 5717 5720 5720 5722 5725 5728 5729 5729 5729 5729 5728 5727 5727 5727 5726 5725 5724 5724 5724 5726 5724 5721 5719 5716 5714 5712 5710 5710 5709 5707 5704 5701 5698 5696 5692 5689 5689 5685 5682 5679 5676 5672 5668 5664 5658 5653 5649 5643 5637 5632 5627 5623
5698 5701 5704 5707 5709 5709 5711 5713 5716 5718 5720 5720 5718 5717 5718 5718 5717 5716 5716 5716 5715 5715 5715 5714 5714 5710 5708 5704 5702 5700 5699 5698 5696 5694 5692 5689 5684 5680 5681 5680 5676 5673 5669 5665 5662 5657 5653 5648 5643 5639 5634 5629 5624 5619
5680 5684 5688 5691 5694 5696 5698 5699 5700 5702 5705 5707 5708 5707 5706 5707 5707 5707 5707 5707 5706 5705 5704 5705 5705 5703 5701 5697 5695 5693 5690 5688 5688 5687 5686 5681 5678 5673 5672 5669 5667 5664 5661 5658 5655 5651 5646 5642 5638 5634 5629 5624 5619 5614
5658 5664 5669 5673 5677 5679 5682 5684 5685 5686 5688 5691 5692 5694 5696 5695 5696 5697 5695 5694 5694 5694 5694 5694 5696 5695 5691 5691 5688 5684 5680 5678 5677 5677 5678 5674 5671 5667 5663 5660 5658 5655 5652 5648 5645 5642 5638 5633 5629 5624 5621 5616 5611 5607
5634 5641 5647 5651 5656 5660 5662 5665 5668 5671 5672 5673 5675 5678 5680 5683 5683 5684 5684 5684 5681 5682 5680 5684 5686 5684 5684 5679 5676 5674 5671 5668 5665 5667 5666 5663 5664 5659 5651 5649 5647 5645 5642 5639 5635 5632 5629 5625 5620 5616 5611 5607 5603 5598
5609 5615 5620 5625 5631 5636 5641 5644 5645 5650 5653 5654 5657 5659 5662 5668 5665 5667 5670 5672 5672 5669 5668 5669 5672 5673 5670 5667 5665 5665 5660 5658 5655 5654 5653 5652 5656 5645 5643 5639 5637 5635 5632 5629 5625 5622 5619 5616 5611 5607 5602 5597 5594 5589
5583 5588 5593 5597 5600 5607 5613 5618 5621 5627 5629 5631 5632 5637 5642 5644 5648 5650 5653 5659 5659 5658 5657 5656 5656 5659 5658 5655 5652 5649 5647 5645 5643 5643 5641 5639 5646 5635 5631 5630 5628 5625 5622 5618 5615 5611 5608 5605 5602 5597 5592 5588 5584 5579
5562 5567 5570 5572 5576 5579 5583 5587 5589 5596 5600 5603 5608 5610 5615 5617 5621 5629 5641 5643 5644 5643 5641 5638 5638 5639 5641 5639 5636 5636 5634 5632 5632 5630 5626 5630 5630 5624 5624 5621 5617 5615 5612 5608 5603 5600 5597 5593 5590 5586 5582 5577 5573 5569
5539 5544 5549 5553 5554 5556 5559 5560 5560 5563 5569 5569 5574 5581 5584 5589 5595 5615 5624 5626 5625 5623 5623 5618 5615 5615 5617 5618 5617 5619 5617 5618 5618 5617 5616 5621 5616 5611 5610 5608 5605 5603 5601 5598 5593 5589 5586 5582 5579 5576 5571 5567 5563 5559
5518 5523 5529 5533 5536 5537 5537 5538 5535 5539 5541 5542 5544 5548 5553 5563 5586 5593 5599 5600 5599 5596 5594 5593 5593 5595 5594 5592 5593 5596 5598 5600 5601 5603 5603 5603 5600 5596 5594 5593 5592 5589 5587 5585 5582 5578 5574 5571 5567 5564 5560 5556 5552 5547
5497 5502 5508 5514 5515 5516 5518 5517 5514 5517 5517 5515 5519 5518 5538 5563 5560 5569 5570 5572 5571 5569 5568 5569 5570 5573 5574 5572 5574 5575 5576 5581 5587 5587 5588 5585 5583 5580 5579 5578 5577 5576 5573 5570 5567 5564 5561 5558 5555 5551 5548 5545 5541 5536
5475 5480 5492 5492 5494 5496 5496 5493 5490 5493 5489 5493 5495 5509 5529 5534 5541 5543 5547 5547 5545 5545 5546 5546 5549 5551 5555 5555 5556 5557 5559 5568 5574 5572 5569 5568 5565 5563 5562 5561 5561 5560 5558 5558 5554 5551 5549 5546 5543 5540 5536 5533 5529 5525
5449 5466 5472 5471 5472 5473 5471 5468 5468 5469 5469 5468 5490 5502 5510 5512 5519 5525 5525 5525 5524 5523 5525 5524 5528 5530 5528 5528 5536 5540 5547 5554 5552 5550 5550 5551 5548 5546 5546 5545 5545 5544 5544 5543 5542 5538 5535 5532 5530 5527 5523 5519 5517 5512
5434 5443 5446 5448 5448 5449 5449 5446 5445 5445 5452 5463 5473 5492 5488 5496 5498 5502 5504 5503 5501 5500 5497 5501 5503 5499 5505 5511 5522 5530 5529 5529 5532 5533 5532 5531 5529 5530 5529 5529 5529 5530 5530 5529 5526 5524 5522 5519 5517 5513 5509 5505 5504 5499
5412 5416 5420 5425 5425 5424 5424 5427 5426 5427 5440 5449 5460 5465 5466 5474 5478 5481 5481 5481 5479 5479 5477 5475 5473 5475 5485 5499 5507 5509 5508 5506 5509 5509 5510 5511 5512 5513 5513 5513 5514 5515 5514 5512 5511 5509 5507 5505 5503 5500 5495 5492 5491 5487
5388 5394 5399 5403 5402 5400 5401 5404 5409 5413 5421 5432 5439 5443 5447 5454 5458 5459 5461 5459 5459 5456 5452 5451 5460 5468 5479 5484 5486 5485 5487 5491 5489 5489 5490 5491 5500 5498 5496 5497 5498 5498 5498 5496 5495 5493 5492 5490 5488 5485 5481 5479 5477 5474
5368 5377 5379 5381 5382 5380 5382 5388 5393 5399 5406 5411 5423 5424 5430 5435 5438 5441 5442 5442 5435 5434 5439 5448 5452 5456 5461 5464 5464 5467 5471 5473 5471 5470 5472 5476 5481 5480 5480 5482 5483 5484 5483 5480 5479 5478 5476 5475 5473 5470 5468 5467 5464 5462
5359 5359 5362 5363 5362 5362 5364 5374 5378 5388 5392 5397 5404 5408 5412 5416 5421 5423 5424 5422 5423 5430 5434 5436 5437 5438 5440 5441 5447 5450 5453 5454 5456 5454 5455 5458 5463 5465 5465 5465 5466 5468 5467 5465 5464 5463 5461 5460 5457 5456 5455 5454 5451 5449
5342 5346 5346 5347 5347 5346 5354 5363 5366 5371 5374 5383 5389 5390 5394 5399 5403 5406 5402 5409 5418 5425 5425 5423 5425 5426 5423 5425 5425 5428 5432 5438 5432 5434 5438 5439 5442 5447 5450 5450 5450 5451 5452 5451 5448 5447 5446 5445 5443 5442 5441 5441 5438 5436
5330 5329 5330 5330 5333 5337 5343 5348 5352 5358 5363 5367 5373 5377 5380 5386 5387 5387 5389 5401 5413 5414 5413 5415 5410 5405 5405 5406 5407 5409 5414 5414 5415 5421 5424 5423 5429 5433 5432 5434 5436 5437 5436 5434 5433 5433 5432 5431 5429 5429 5428 5426 5425 5422
5314 5315 5315 5319 5324 5326 5329 5335 5341 5346 5352 5359 5363 5365 5369 5372 5371 5373 5379 5391 5402 5402 5399 5395 5395 5394 5392 5395 5397 5397 5398 5394 5398 5406 5413 5410 5411 5414 5417 5419 5421 5422 5421 5419 5418 5417 5417 5417 5416 5415 5414 5413 5410 5408
5297 5300 5303 5309 5314 5317 5321 5326 5332 5340 5346 5349 5351 5354 5358 5360 5361 5364 5378 5385 5387 5383 5382 5382 5382 5383 5384 5383 5384 5385 5383 5378 5382 5389 5399 5396 5398 5398 5399 5401 5405 5407 5406 5406 5405 5404 5403 5402 5402 5401 5399 5398 5395 5393
5282 5288 5295 5301 5306 5311 5314 5319 5322 5326 5331 5335 5340 5345 5346 5347 5350 5365 5371 5371 5372 5372 5372 5372 5372 5371 5371 5370 5370 5369 5367 5366 5368 5372 5375 5380 5385 5385 5387 5388 5390 5391 5392 5392 5391 5390 5389 5388 5387 5386 5385 5383 5381 5379
5276 5283 5288 5296 5299 5302 5306 5308 5311 5314 5320 5323 5327 5329 5331 5337 5348 5357 5356 5356 5357 5358 5360 5362 5362 5362 5361 5360 5359 5359 5357 5358 5359 5363 5365 5367 5370 5372 5374 5375 5376 5377 5378 5378 5378 5377 5375 5375 5374 5373 5371 5370 5368 5366
5270 5279 5281 5284 5288 5290 5291 5296 5301 5307 5312 5313 5315 5319 5324 5330 5337 5338 5340 5342 5345 5347 5350 5351 5352 5351 5351 5351 5350 5349 5350 5351 5353 5353 5355 5357 5357 5361 5362 5362 5362 5364 5364 5365 5365 5363 5363 5362 5362 5360 5359 5358 5355 5352
5261 5268 5269 5273 5276 5278 5285 5290 5294 5297 5297 5300 5303 5305 5310 5317 5322 5323 5328 5331 5334 5336 5338 5339 5340 5341 5342 5341 5340 5339 5339 5340 5340 5342 5344 5345 5346 5347 5348 5349 5350 5351 5352 5352 5352 5352 5351 5351 5350 5349 5347 5345 5342 5339
5256 5258 5260 5264 5268 5276 5278 5279 5279 5282 5284 5286 5289 5292 5299 5302 5306 5312 5315 5319 5321 5324 5328 5330 5330 5330 5331 5331 5329 5329 5329 5330 5331 5331 5332 5333 5335 5336 5336 5337 5339 5339 5340 5340 5341 5341 5340 5339 5338 5337 5335 5333 5329 5325
5244 5249 5255 5257 5262 5264 5264 5265 5267 5269 5272 5274 5278 5281 5285 5286 5290 5300 5306 5305 5309 5312 5316 5317 5318 5319 5320 5321 5320 5321 5320 5320 5320 5320 5321 5323 5324 5325 5326 5327 5327 5328 5329 5330 5330 5330 5329 5328 5327 5325 5322 5319 5316 5314
5237 5241 5245 5248 5249 5252 5255 5254 5256 5256 5259 5263 5268 5270 5271 5272 5273 5288 5296 5297 5297 5299 5300 5301 5302 5304 5307 5309 5310 5310 5310 5310 5310 5309 5310 5312 5314 5315 5316 5316 5318 5319 5320 5320 5320 5320 5319 5318 5316 5313 5310 5308 5306 5304